DW3219 Weather Reports


time (UTC)temp
C
wind
direction
speed
KPH
gust
KPH
rain 1hr
cm
rain 24hr
cm
rain mn
cm
humidity
%
barometer
mb
20260507104539 8 155 0.0 8.0 0.03 0.05 0.05 82 1010.4
20260507103028 9 180 0.0 1.6 0.03 0.05 0.05 81 1010.9
20260507101524 9 175 0.0 4.8 0.05 0.05 0.05 81 1011.3
20260507100023 9 148 0.0 0.0 0.05 0.05 0.05 80 1011.3
20260507094522 10 16 0.0 16.1 0.03 0.03 0.03 78 1011.6
20260507093020 10 296 12.9 30.6 0.03 0.03 0.03 74 1011.7
20260507091518 11 319 4.8 32.2 0.00 0.00 0.00 66 1011.4
20260507090015 10 287 6.4 24.1 0.00 0.00 0.00 69 1011.1
20260507084526 10 360 1.6 17.7 0.00 0.00 0.00 55 1011.5
20260507083059 9 294 0.0 6.4 0.00 0.00 0.00 49 1011.6
20260507081556 10 302 0.0 8.0 0.00 0.00 0.00 43 1011.7
20260507080054 9 271 0.0 0.0 0.00 0.00 0.00 38 1011.5
20260507074552 10 261 0.0 0.0 0.00 0.00 0.00 37 1010.9
20260507073050 10 200 0.0 0.0 0.00 0.00 0.00 34 1010.6
20260507071552 10 200 0.0 3.2 0.00 0.00 0.00 33 1010.9
20260507070059 10 160 0.0 1.6 0.00 0.00 0.00 33 1010.9
20260507064546 10 136 0.0 0.0 0.00 0.00 0.00 31 1010.6
20260507063034 11 152 0.0 6.4 0.00 0.00 0.00 31 1010.3
20260507061529 12 149 0.0 11.3 0.00 0.00 0.00 27 1010.3
20260507060027 12 208 0.0 0.0 0.00 0.00 0.00 27 1010.5
20260507054525 11 202 1.6 16.1 0.00 0.00 0.00 27 1010.8
20260507053022 11 246 0.0 20.9 0.00 0.00 0.00 30 1011.7
20260507051533 12 202 0.0 8.0 0.00 0.00 0.00 24 1011.4
20260507050020 11 171 0.0 0.0 0.00 0.00 0.00 26 1011.4
20260507044520 11 158 0.0 0.0 0.00 0.00 0.00 26 1011.4
20260507043009 11 158 0.0 0.0 0.00 0.00 0.00 27 1011.5
20260507041508 11 165 0.0 4.8 0.00 0.00 0.00 27 1011.7
20260507040006 11 176 0.0 0.0 0.00 0.00 0.00 26 1011.5
20260507034506 11 169 0.0 8.0 0.00 0.00 0.00 27 1011.3
20260507033004 12 180 0.0 6.4 0.00 0.00 0.00 25 1011.3
20260507031502 12 161 0.0 0.0 0.00 0.00 0.00 25 1011.3
20260507030100 12 167 0.0 1.6 0.00 0.00 0.00 24 1011.2
20260507024601 12 163 0.0 6.4 0.00 0.00 0.00 24 1011.2
20260507023043 13 171 0.0 0.0 0.00 0.00 0.00 23 1011.4
20260507021547 13 169 0.0 4.8 0.00 0.00 0.00 23 1011.2
20260507020039 13 176 0.0 3.2 0.00 0.00 0.00 22 1011.2
20260507014543 14 180 1.6 8.0 0.00 0.00 0.00 22 1011.2
20260507013037 15 172 0.0 12.9 0.00 0.00 0.00 21 1011.1
20260507011542 15 161 1.6 17.7 0.00 0.00 0.00 20 1011.2
20260507010040 15 192 3.2 16.1 0.00 0.00 0.00 20 1011.3
20260507004534 15 136 3.2 12.9 0.00 0.00 0.00 20 1011.5
20260507003021 15 139 1.6 16.1 0.00 0.00 0.00 20 1011.7
20260507001519 15 155 1.6 14.5 0.00 0.00 0.00 19 1011.9
20260507000018 15 188 0.0 9.7 0.00 0.00 0.00 20 1012.0
20260506234517 15 170 1.6 12.9 0.00 0.00 0.00 19 1012.3
20260506233015 15 140 1.6 11.3 0.00 0.00 0.00 20 1012.4
20260506231515 15 169 0.0 11.3 0.00 0.00 0.00 20 1012.7
20260506230014 15 116 0.0 16.1 0.00 0.00 0.00 21 1012.8
20260506224511 15 147 1.6 16.1 0.00 0.00 0.00 21 1012.9
20260506223007 15 171 0.0 8.0 0.00 0.00 0.00 21 1013.1
20260506221555 15 138 0.0 20.9 0.00 0.00 0.00 21 1013.4
20260506220053 14 119 0.0 11.3 0.00 0.00 0.00 21 1013.7
20260506214551 15 158 3.2 12.9 0.00 0.00 0.00 22 1014.2
20260506213046 14 121 0.0 16.1 0.00 0.00 0.00 23 1014.4
20260506211550 13 156 0.0 17.7 0.00 0.00 0.00 22 1014.8
20260506210041 13 167 0.0 6.4 0.00 0.00 0.00 22 1015.2
20260506204540 13 132 0.0 14.5 0.00 0.00 0.00 22 1015.4
20260506203038 13 136 3.2 19.3 0.00 0.00 0.00 23 1015.7
20260506201527 13 180 0.0 19.3 0.00 0.00 0.00 22 1015.9
20260506200021 12 120 3.2 20.9 0.00 0.00 0.00 26 1016.2
20260506194519 12 132 1.6 14.5 0.00 0.00 0.00 27 1016.5
20260506193017 11 201 3.2 17.7 0.00 0.00 0.00 27 1016.7
20260506191516 11 148 0.0 12.9 0.00 0.00 0.00 28 1016.9
20260506190014 11 136 1.6 14.5 0.00 0.00 0.00 27 1017.5
20260506184521 10 167 1.6 16.1 0.00 0.00 0.00 28 1017.8
20260506183010 10 276 0.0 12.9 0.00 0.00 0.00 31 1017.9
20260506181552 10 205 0.0 16.1 0.00 0.00 0.00 32 1018.3
20260506180050 10 277 0.0 16.1 0.00 0.00 0.00 34 1018.4
20260506174535 9 221 0.0 6.4 0.00 0.00 0.00 37 1019.0
20260506173032 8 148 0.0 11.3 0.00 0.00 0.00 36 1019.3
20260506171533 8 190 0.0 6.4 0.00 0.00 0.00 36 1019.4
20260506170030 8 213 0.0 12.9 0.00 0.00 0.00 36 1019.6
20260506164529 8 150 0.0 6.4 0.00 0.00 0.00 38 1019.5
20260506163027 7 196 0.0 4.8 0.00 0.00 0.00 40 1019.5
20260506161527 7 222 0.0 4.8 0.00 0.00 0.00 41 1019.8
20260506160027 7 159 0.0 0.0 0.00 0.00 0.00 42 1020.1
20260506154514 7 60 0.0 1.6 0.00 0.00 0.00 44 1020.2
20260506153013 6 196 0.0 0.0 0.00 0.00 0.00 46 1020.5
20260506151513 6 197 0.0 0.0 0.00 0.00 0.00 49 1020.7
20260506150013 5 200 0.0 3.2 0.00 0.00 0.00 50 1020.8
20260506144525 3 202 0.0 0.0 0.00 0.00 0.00 57 1021.0
20260506143012 2 238 0.0 0.0 0.00 0.00 0.00 61 1021.2
20260506141512 1 238 0.0 0.0 0.00 0.00 0.00 65 1021.4
20260506140011 0 238 0.0 0.0 0.00 0.00 0.00 68 1021.4
20260506134559 0 238 0.0 0.0 0.00 0.00 0.00 70 1021.4
20260506133134 -1 238 0.0 0.0 0.00 0.00 0.00 73 1021.3
20260506131557 -2 238 0.0 0.0 0.00 0.00 0.00 75 1021.2
20260506130136 -2 238 0.0 0.0 0.00 0.00 0.00 76 1021.0
20260506124554 -3 238 0.0 0.0 0.00 0.00 0.00 77 1020.9
20260506123052 -3 238 0.0 0.0 0.00 0.00 0.00 77 1020.7
20260506121554 -3 238 0.0 0.0 0.00 0.00 0.00 80 1020.7
20260506120048 -3 238 0.0 0.0 0.00 0.00 0.00 79 1020.5
20260506114535 -3 238 0.0 0.0 0.00 0.00 0.00 79 1020.5
20260506113037 -2 238 0.0 1.6 0.00 0.00 0.00 77 1020.4
20260506111533 -2 238 0.0 0.0 0.00 0.00 0.00 74 1020.1